CST,Max TemperatureF,Mean TemperatureF,Min TemperatureF,Max Dew PointF,MeanDew PointF,Min DewpointF,Max Humidity, Mean Humidity, Min Humidity, Max Sea Level PressureIn, Mean Sea Level PressureIn, Min Sea Level PressureIn, Max VisibilityMiles, Mean VisibilityMiles, Min VisibilityMiles, Max Wind SpeedMPH, Mean Wind SpeedMPH, Max Gust SpeedMPH,PrecipitationIn, CloudCover, Events, WindDirDegrees
2013-1-1,78,71,64,64,61,57,83,71,54,30.10,30.01,29.92,8,8,7,14,5,,0.00,3,,106
2013-1-2,80,72,64,70,64,59,94,80,61,30.05,29.98,29.93,8,7,7,15,2,,0.00,3,,130
2013-1-3,80,70,60,68,64,59,94,79,54,30.09,30.02,29.98,8,7,7,8,2,,0.00,1,,107
2013-1-4,78,71,64,68,65,63,94,79,61,30.16,30.10,30.03,8,8,7,14,4,,0.00,3,,77
2013-1-5,80,74,68,68,65,64,88,77,61,30.15,30.09,30.03,8,7,7,14,6,,0.00,3,,90
2013-1-6,78,72,66,66,65,63,88,79,61,30.13,30.05,29.99,8,8,7,9,3,,0.00,3,,85
2013-1-7,80,74,68,68,60,57,88,65,45,30.11,30.03,29.96,8,8,7,13,3,,3.85,4,,79
2013-1-8,78,71,64,63,57,54,73,59,44,30.09,30.00,29.94,8,7,7,14,5,,0.00,3,,97
2013-1-9,80,74,69,64,61,54,78,61,51,30.09,30.03,29.97,8,8,7,20,10,,0.00,3,,105
2013-1-10,78,74,71,66,61,59,78,62,51,30.12,30.06,30.01,8,8,7,21,12,,0.00,3,,103
2013-1-11,80,73,66,63,58,55,78,62,47,30.12,30.04,29.96,8,8,7,15,6,,0.00,3,,102
2013-1-12,78,72,66,63,58,55,78,59,47,30.06,29.99,29.91,8,7,7,16,7,,0.00,4,,108
2013-1-13,80,74,68,73,57,54,79,56,42,30.04,29.96,29.90,8,7,7,12,6,18,0.00,2,,123
2013-1-14,84,75,66,64,58,54,78,59,42,30.08,30.01,29.96,8,8,7,14,4,,0.00,3,,111
2013-1-15,82,73,64,73,57,50,79,57,39,30.07,29.99,29.94,8,8,7,13,6,,0.00,2,,100
2013-1-16,82,71,60,63,54,48,78,59,42,30.05,29.98,29.94,8,8,7,10,2,,0.00,2,,110
2013-1-17,80,70,60,61,53,46,68,57,47,30.21,30.10,30.01,8,7,6,25,8,32,0.00,4,,346
2013-1-18,71,68,66,54,50,46,64,52,43,30.27,30.19,30.14,8,7,7,22,16,30,0.00,7,,352
2013-1-19,77,72,66,66,55,50,78,60,44,30.22,30.13,30.06,10,8,7,14,10,,0.00,5,,7
2013-1-20,78,72,66,61,57,54,73,61,44,30.18,30.08,30.00,8,8,7,14,8,,0.00,4,,16
2013-1-21,78,72,64,63,58,52,73,62,50,30.13,30.06,30.01,8,7,7,12,7,,0.00,4,,35
2013-1-22,77,68,60,64,59,52,83,66,57,30.18,30.10,30.03,8,8,7,14,5,,0.00,4,,46
2013-1-23,71,68,66,66,60,54,88,71,56,30.23,30.17,30.11,7,6,5,10,7,,0.15,7,Rain,56
2013-1-24,77,70,64,66,62,57,88,75,65,30.22,30.16,30.10,8,7,5,16,6,,0.25,6,Rain,38
2013-1-25,77,70,64,63,58,54,83,65,50,30.20,30.13,30.07,8,7,6,14,9,25,1.00,4,,78
2013-1-26,78,68,59,61,56,50,83,63,47,30.19,30.12,30.06,8,8,7,14,6,,0.00,2,,64
2013-1-27,78,69,60,64,59,48,78,66,54,30.16,30.10,30.05,8,7,6,16,6,,0.55,3,Rain,71
2013-1-28,82,75,68,64,60,55,83,65,45,30.18,30.10,30.06,8,7,3,15,5,17,0.00,4,Rain,104
2013-1-29,82,75,68,73,66,55,94,77,61,30.11,30.03,29.95,8,7,7,17,5,,0.00,3,,120
2013-1-30,80,74,68,70,67,63,94,77,61,30.00,29.95,29.91,8,8,7,16,8,25,0.05,3,,134
2013-1-31,73,68,64,68,61,54,94,74,60,30.14,30.07,29.97,7,7,2,14,6,,5.60,5,Rain,22